TimeWET,TemperatureF,Dew PointF,Humidity,Sea Level PressureIn,VisibilityMPH,Wind Direction,Wind SpeedMPH,Gust SpeedMPH,PrecipitationIn,Events,Conditions,WindDirDegrees,DateUTC
12:00 AM,51.8,48.2,88,30.06,-9999.0,SSE,4.6,-,N/A,,Clear,160,2012-10-22 00:00:00
3:00 AM,51,48,84,30.07,6,ESE,6.9,,,,,120,2012-10-22 03:00:00
3:00 AM,51.8,48.2,88,30.06,-9999.0,ESE,6.9,-,N/A,,Clear,120,2012-10-22 03:00:00
5:00 AM,48.2,44.6,87,30.04,-9999.0,SE,4.6,-,N/A,,Clear,140,2012-10-22 05:00:00
6:00 AM,47,44,87,30.08,6,South,6.9,,,,Clear,170,2012-10-22 06:00:00
6:00 AM,48.2,44.6,87,30.06,-9999.0,South,6.9,-,N/A,,Clear,170,2012-10-22 06:00:00
7:00 AM,50.0,46.4,87,30.06,-9999.0,West,5.8,-,N/A,,Clear,270,2012-10-22 07:00:00
8:00 AM,59.0,48.2,67,30.06,-9999.0,South,2.3,-,N/A,,Clear,170,2012-10-22 08:00:00
9:00 AM,63,50,53,30.06,6,East,4.6,,,,Clear,100,2012-10-22 09:00:00
9:00 AM,62.6,50.0,63,30.09,-9999.0,East,4.6,-,N/A,,Clear,100,2012-10-22 09:00:00
10:00 AM,68.0,48.2,49,30.09,-9999.0,ENE,4.6,-,N/A,,Clear,70,2012-10-22 10:00:00
11:00 AM,71.6,51.8,50,30.09,-9999.0,ENE,4.6,-,N/A,,Clear,60,2012-10-22 11:00:00
12:00 PM,73.4,50.0,44,30.06,-9999.0,NE,4.6,-,N/A,,Clear,50,2012-10-22 12:00:00
1:00 PM,73.4,51.8,47,30.06,6.2,East,4.6,-,N/A,,Scattered Clouds,80,2012-10-22 13:00:00
2:00 PM,77.0,51.8,41,30.04,6.2,NE,2.3,-,N/A,,Scattered Clouds,50,2012-10-22 14:00:00
3:00 PM,78,51,28,29.94,6,East,9.2,,,,Scattered Clouds,90,2012-10-22 15:00:00
3:00 PM,78.8,51.8,39,30.04,6.2,East,9.2,-,N/A,,Scattered Clouds,90,2012-10-22 15:00:00
4:00 PM,78.8,44.6,30,30.04,6.2,East,9.2,-,N/A,,Scattered Clouds,80,2012-10-22 16:00:00
5:00 PM,78.8,48.2,34,30.04,6.2,NE,9.2,-,N/A,,Scattered Clouds,50,2012-10-22 17:00:00
6:00 PM,73,54,41,29.97,6,NE,9.2,,,,Scattered Clouds,40,2012-10-22 18:00:00
6:00 PM,73.4,53.6,50,30.06,6.2,NE,9.2,-,N/A,,Scattered Clouds,40,2012-10-22 18:00:00
7:00 PM,62.6,51.8,68,30.06,-9999.0,South,6.9,-,N/A,,Clear,180,2012-10-22 19:00:00
8:00 PM,60.8,51.8,72,30.09,-9999.0,SSW,9.2,-,N/A,,Clear,200,2012-10-22 20:00:00
9:00 PM,61,50,59,30.07,6,SSW,9.2,,,,Clear,200,2012-10-22 21:00:00
9:00 PM,60.8,50.0,68,30.09,-9999.0,SSW,9.2,-,N/A,,Clear,200,2012-10-22 21:00:00
10:00 PM,60.8,48.2,63,30.09,-9999.0,SSW,10.4,-,N/A,,Clear,200,2012-10-22 22:00:00
11:00 PM,60.8,46.4,59,30.09,-9999.0,SSW,10.4,-,N/A,,Clear,210,2012-10-22 23:00:00